Location: Newark
(43.9494°N, 6.8108°E)
Time: 15:15:44
(UTC+00:00)

A-11 Canister half - Pass Details

Date: 23 October 2019
Orbit: 1514 x 1685 km, 47.2° (Epoch: 21 November)

Event Time Altitude Azimuth Distance (km) Brightness Sun altitude
Rises 08:55:22 0° 289° (WNW) 4,748 11.1 26.0°
Reaches altitude 10° 08:59:53 10° 271° (W) 3,731 10.8 26.5°
Maximum altitude 09:05:15 17° 235° (SW) 3,179 10.8 27.1°
Drops below altitude 10° 09:10:34 10° 199° (SSW) 3,672 11.6 27.7°
Sets 09:15:00 0° 181° (S) 4,641 12.3 28.1°
